Louisville, KY

3:03 PM EDT on September 26, 2017 (GMT -0400)
Louisville International-Standiford

Weather History for KSDF - October, 2013

Change the Weather History Date:

Friday, October 11, 2013

  Actual Average Record
Temperature  
Mean Temperature 66 °F 61 °F  
Max Temperature 79 °F 72 °F 90 °F (2010)
Min Temperature 52 °F 50 °F 30 °F (1906)
Degree Days  
Heating Degree Days 0 6  
Month to date heating degree days 17 50  
Since 1 July heating degree days 23 80  
Cooling Degree Days 1 2  
Month to date cooling degree days 48 26  
Year to date cooling degree days 1623 1593  
Growing Degree Days 16 (Base 50)    
Moisture  
Dew Point 52 °F    
Average Humidity 63    
Maximum Humidity 89    
Minimum Humidity 37    
Precipitation  
Precipitation 0.00 in 0.11 in 1.02 in (1898)
Month to date precipitation 7.57 1.17  
Year to date precipitation 42.08 35.44  
Snow  
Snow 0.00 in 0.00 in 0.00 in ()
Month to date snowfall 0.0 0.0  
Since 1 July snowfall 0.0 0.0  
Since 1 September snowfall 0.0 0.0  
Snow Depth 0.00 in    
Sea Level Pressure  
Sea Level Pressure 30.06 in    
Wind  
Wind Speed 2 mph (WSW)    
Max Wind Speed 6 mph    
Max Gust Speed 8 mph    
Visibility 9 miles    
Events      
T = Trace of Precipitation, MM = Missing Value Source: NWS Daily Summary

Daily Weather History Graph

Daily Weather History Graph

Search for Another Location

Airport or City:

Trip Planner

Search our weather history database for the weather conditions in past years. The results will help you decide how hot, cold, wet, or windy it might be!

Date:

Astronomy

Oct. 11, 2013 Rise Set
Actual Time 7:48 AM EDT 7:10 PM EDT
Civil Twilight 7:21 AM EDT 7:36 PM EDT
Nautical Twilight 6:51 AM EDT 8:07 PM EDT
Astronomical Twilight 6:20 AM EDT 8:38 PM EDT
Moon 2:26 PM EDT (10/11) No Moon Set
Length of Visible Light 12h 15m
Length of Day
11h 22m
Waxing Crescent, 47% of the Moon is Illuminated
Oct 11
Waxing Crescent
Oct 11
First Quarter
Oct 18
Full
Oct 26
Last Quarter
Nov 3
New

Hourly Weather History & Observations

Time (EDT) Temp. Dew Point Humidity Pressure Visibility Wind Dir Wind Speed Gust Speed Precip Events Conditions
12:56 AM 57.9 °F 52.0 °F 81% 30.06 in 10.0 mi SE 3.5 mph - N/A   Clear
1:56 AM 55.9 °F 52.0 °F 87% 30.06 in 10.0 mi WNW 3.5 mph - N/A   Clear
2:56 AM 55.4 °F 51.8 °F 88% 30.06 in 10.0 mi West 3.5 mph - N/A   Partly Cloudy
3:56 AM 55.4 °F 51.8 °F 88% 30.05 in 9.0 mi Calm Calm - N/A   Partly Cloudy
4:56 AM 55.0 °F 51.1 °F 86% 30.06 in 10.0 mi East 3.5 mph - N/A   Clear
5:56 AM 52.0 °F 48.0 °F 86% 30.07 in 10.0 mi WSW 3.5 mph - N/A   Clear
6:56 AM 53.1 °F 50.0 °F 89% 30.09 in 9.0 mi Calm Calm - N/A   Clear
7:56 AM 53.1 °F 50.0 °F 89% 30.10 in 7.0 mi Calm Calm - N/A   Clear
8:56 AM 57.0 °F 52.0 °F 83% 30.11 in 7.0 mi Calm Calm - N/A   Partly Cloudy
9:56 AM 60.1 °F 53.1 °F 78% 30.11 in 7.0 mi Calm Calm - N/A   Partly Cloudy
10:56 AM 66.9 °F 54.0 °F 63% 30.11 in 8.0 mi Calm Calm - N/A   Partly Cloudy
11:56 AM 70.0 °F 46.9 °F 44% 30.10 in 10.0 mi Calm Calm - N/A   Clear
12:56 PM 73.0 °F 46.9 °F 39% 30.08 in 10.0 mi Calm Calm - N/A   Clear
1:56 PM 75.0 °F 48.0 °F 38% 30.07 in 10.0 mi WSW 4.6 mph - N/A   Clear
2:56 PM 78.1 °F 50.0 °F 37% 30.04 in 10.0 mi NNE 3.5 mph - N/A   Clear
3:56 PM 78.1 °F 50.0 °F 37% 30.03 in 10.0 mi WNW 3.5 mph - N/A   Clear
4:56 PM 78.1 °F 51.1 °F 39% 30.02 in 10.0 mi Calm Calm - N/A   Clear
5:56 PM 78.1 °F 52.0 °F 40% 30.02 in 10.0 mi Calm Calm - N/A   Clear
6:56 PM 73.0 °F 53.1 °F 49% 30.02 in 10.0 mi SW 3.5 mph - N/A   Clear
7:56 PM 71.1 °F 52.0 °F 51% 30.02 in 10.0 mi Calm Calm - N/A   Clear
8:56 PM 68.0 °F 54.0 °F 61% 30.02 in 10.0 mi East 3.5 mph - N/A   Partly Cloudy
9:56 PM 66.0 °F 54.0 °F 65% 30.03 in 10.0 mi WSW 3.5 mph - N/A   Partly Cloudy
10:56 PM 63.0 °F 55.9 °F 78% 30.03 in 10.0 mi Calm Calm - N/A   Partly Cloudy
11:56 PM 60.1 °F 55.0 °F 83% 30.03 in 10.0 mi Calm Calm - N/A   Partly Cloudy